TimeEST,TemperatureF,Dew PointF,Humidity,Sea Level PressureIn,VisibilityMPH,Wind Direction,Wind SpeedMPH,Gust SpeedMPH,PrecipitationIn,Events,Conditions,WindDirDegrees,DateUTC
12:53 AM,46.9,45.0,93,29.88,4.0,NW,5.8,-,N/A,,Overcast,310,2013-02-24 05:53:00
1:06 AM,46.4,44.6,93,29.89,2.0,NW,5.8,-,N/A,,Overcast,310,2013-02-24 06:06:00
1:53 AM,46.9,45.0,93,29.88,3.0,NW,5.8,-,0.00,,Overcast,310,2013-02-24 06:53:00
2:53 AM,46.9,45.0,93,29.89,4.0,WNW,6.9,-,0.01,Rain,Light Rain,300,2013-02-24 07:53:00
3:09 AM,46.4,44.6,93,29.89,10.0,NW,8.1,-,0.00,,Overcast,310,2013-02-24 08:09:00
3:53 AM,46.9,45.0,93,29.89,9.0,WNW,5.8,-,0.00,,Overcast,300,2013-02-24 08:53:00
4:53 AM,46.9,45.0,93,29.89,9.0,WNW,5.8,-,N/A,,Overcast,290,2013-02-24 09:53:00
5:18 AM,46.4,44.6,93,29.89,9.0,West,6.9,-,N/A,,Overcast,280,2013-02-24 10:18:00
5:53 AM,46.0,45.0,96,29.91,7.0,WNW,8.1,-,N/A,,Overcast,300,2013-02-24 10:53:00
7:53 AM,46.0,44.1,93,29.96,8.0,NW,9.2,-,N/A,,Overcast,310,2013-02-24 12:53:00
8:53 AM,46.9,44.1,90,29.99,8.0,NW,8.1,-,N/A,,Overcast,310,2013-02-24 13:53:00
9:53 AM,48.9,45.0,86,30.00,10.0,NW,9.2,-,N/A,,Mostly Cloudy,320,2013-02-24 14:53:00
10:08 AM,50.0,44.6,82,30.00,10.0,NNW,4.6,-,N/A,,Scattered Clouds,340,2013-02-24 15:08:00
10:53 AM,53.1,45.0,74,30.01,10.0,Variable,4.6,-,N/A,,Partly Cloudy,0,2013-02-24 15:53:00
11:53 AM,57.9,46.9,67,30.00,10.0,Variable,4.6,-,N/A,,Clear,0,2013-02-24 16:53:00
12:53 PM,61.0,45.0,56,29.98,10.0,West,5.8,-,N/A,,Clear,280,2013-02-24 17:53:00
1:53 PM,63.0,44.1,50,29.95,10.0,SSE,4.6,-,N/A,,Clear,160,2013-02-24 18:53:00
2:53 PM,66.0,43.0,43,29.93,10.0,Calm,Calm,-,N/A,,Clear,0,2013-02-24 19:53:00
3:53 PM,68.0,41.0,37,29.93,10.0,Variable,3.5,-,N/A,,Clear,0,2013-02-24 20:53:00
4:53 PM,69.1,39.0,33,29.92,10.0,West,8.1,-,N/A,,Clear,260,2013-02-24 21:53:00
5:53 PM,66.0,39.9,38,29.94,10.0,SW,3.5,-,N/A,,Clear,220,2013-02-24 22:53:00
6:53 PM,57.9,41.0,53,29.96,10.0,Calm,Calm,-,N/A,,Clear,0,2013-02-24 23:53:00
7:53 PM,55.0,43.0,64,29.98,10.0,NNE,5.8,-,N/A,,Clear,30,2013-02-25 00:53:00
8:53 PM,53.1,45.0,74,30.00,10.0,Calm,Calm,-,N/A,,Clear,0,2013-02-25 01:53:00
9:53 PM,46.9,44.1,90,30.01,10.0,Calm,Calm,-,N/A,,Clear,0,2013-02-25 02:53:00
10:53 PM,45.0,43.0,93,30.00,10.0,Calm,Calm,-,N/A,,Clear,0,2013-02-25 03:53:00
11:53 PM,44.1,42.1,93,30.00,10.0,Calm,Calm,-,N/A,,Clear,0,2013-02-25 04:53:00